Location: Wapato
(46.4478°N, 120.4212°W)
Time: 22:50:25
(UTC+00:00)

Vanguard 1 Rocket - Pass Details

Date: 21 May 2026
Orbit: 656 x 4211 km, 34.3° (Epoch: 2 June)

Event Time Altitude Azimuth Distance (km) Brightness Sun altitude
Rises 01:26:15 0° 264° (W) 4,639 12.5 19.9°
Reaches altitude 10° 01:28:56 10° 258° (WSW) 4,000 12.2 19.4°
Maximum altitude 01:39:28 44° 190° (S) 3,264 10.4 17.6°
Drops below altitude 10° 01:58:15 10° 128° (SE) 6,889 11.4 14.5°
Sets 02:04:47 0° 123° (ESE) 8,234 11.7 13.4°
